Weather Roundup
Issued by NWS Chicago, IL

Home | Current Version | Previous Version | Graphics & Text | Print | Product List | Glossary On
Versions: 1 2 3 4 5 6 7 8 9 10 11 12 13 14 15 16 17 18 19 20 21 22 23 24 25 26 27 28 29 30 31 32 33 34 35 36 37 38 39 40 41 42 43 44 45 46 47 48 49 50
000
NZUS59 KLOT 301108
HRRLOT

CHICAGO AREA WEATHER ROUNDUP
NATIONAL WEATHER SERVICE CHICAGO/ROMEOVILLE IL
600 AM CDT THU JUL 30 2015

NOTE: "FAIR" INDICATES FEW OR NO CLOUDS BELOW 12,000 FEET WITH NO
SIGNIFICANT WEATHER AND/OR OBSTRUCTIONS TO VISIBILITY.

* THESE STATIONS ARE NOT UNDER NWS QUALITY CONTROL. THEY ALSO MAY NOT
  REPORT WEATHER SUCH AS PRECIPITATION OR FOG.

ILZ005-006-012>014-019>023-301200-
NORTHEAST ILLINOIS

CITY           SKY/WX    TMP DP  RH WIND       PRES   REMARKS
OHARE          CLEAR     65  58  78 W5        30.04R
MIDWAY         CLEAR     69  57  65 W7        30.04R
AURORA         CLEAR     58  55  90 W5        30.06R
LANSING*       CLEAR     64  55  73 W5        30.05R
JOLIET*        CLEAR     66  60  81 W5        30.06S
WAUKEGAN       CLEAR     65  57  75 SW5       30.01R
DUPAGE AIRPORT CLEAR     63  58  83 W6        30.05R
WHEELING       CLEAR     67  57  70 W5        30.05R
KANKAKEE*      CLEAR     62  60  93 W6        30.08R
MORRIS*        CLEAR     62  59  88 W7        30.06R
LEWIS AIRPORT* CLEAR     62  58  87 W5        30.06R
NORTHERLY IS     N/A     71  57  61 W9          N/A
$$

WIZ051-052-058>065-066-070>072-301200-
SOUTHEAST WISCONSIN

CITY           SKY/WX    TMP DP  RH WIND       PRES   REMARKS
MILWAUKEE      CLEAR     67  54  63 W7        29.99R
KENOSHA*       CLEAR     61  55  81 W8        30.01S
RACINE*        CLEAR     64  55  72 W7        30.02R
BURLINGTON     CLEAR     60  54  80 W5        30.02R
WAUKESHA       CLEAR     63  54  72 W8        30.02R
WEST BEND      CLEAR     63  52  67 W7        29.99R
$$

INZ001>003-010>013-019-020-301200-
NORTHWEST INDIANA

CITY           SKY/WX    TMP DP  RH WIND       PRES   REMARKS
GARY*          CLEAR     68  59  73 W8        30.05R
MICHIGAN CITY* NOT AVBL
RENSSELAER*    NOT AVBL
VALPARAISO     CLEAR     62  57  83 W5        30.05R
$$

LMZ740>746-301200-
SOUTHERN LAKE MICHIGAN

STATION/POSITION TIME  SKY/WX   TEMP WIND        PRES    VSBY
                                AIR  DIR/SP/G
                 (UTC)          (F)  (DEG/KT/KT) (MB)    (MI)
HARRISON CRIB    1000            71  270/ 15/ 18   N/A
BURNHAM HARBOR   1100            71  280/  8/ 12   N/A
CALUMET HARBOR   NOT AVBL
BURNS HARBOR     1000            72  270/ 15/ 17 1016.9R
MICHIGAN CITY    1000            72  240/ 15/ 17   N/A
$$

ABBREVIATIONS USED IN REMARKS
   TC - TEMPERATURE IN CELSIUS
  WCI - WIND CHILL INDEX
   HX - HEAT INDEX
  VSB - VISIBILITY
$$


USA.gov is the U.S. government's official web portal to all federal, state and local government web resources and services.